Wind_Speed
6 6 6 3 4 4 4 6 1 3 3 2 7 10 8 3 1 1 6 7 21 22 21 21 21 22 21 21 20 19 17 16 15 14 13 13 13 13 14 13 13 14 14 14 14 14 14 14 14
5 1 1 2 4 3 5 3 2 3 10 12 10 7 8 6 4 6 12 19 25 23 21 21 21 21 21 20 19 17 16 15 14 13 12 13 13 14 14 14 14 13 14 14 13 14 14 15 15
2 2 3 4 3 4 4 2 8 9 4 5 5 5 4 7 3 5 14 25 25 23 22 21 20 21 20 19 17 16 16 15 14 12 12 12 13 13 14 14 13 13 14 14 14 14 14 15 15
2 5 4 4 3 5 3 5 8 4 2 6 7 6 4 1 6 8 24 23 23 21 21 20 20 19 18 17 16 16 15 14 13 12 12 12 13 14 14 14 13 14 15 15 15 16 16 15 17
3 2 4 2 4 5 2 11 2 2 3 4 3 7 6 3 8 24 24 23 23 22 21 19 18 18 17 16 16 15 14 13 13 13 12 12 14 14 14 14 14 15 15 15 16 17 18 18 18
3 2 5 1 4 6 3 9 4 6 5 3 4 7 2 9 22 21 21 22 22 23 22 20 18 16 16 16 15 15 14 14 14 13 13 14 13 14 14 14 15 15 15 16 16 16 16 16 16
4 3 6 5 3 6 2 6 8 1 5 5 4 5 2 6 16 22 22 21 23 23 22 19 18 17 15 15 15 14 14 13 13 13 13 12 12 12 12 12 12 12 12 13 13 14 14 15 16
4 4 5 4 6 7 3 6 10 15 9 3 5 6 7 8 20 25 24 24 24 21 20 19 18 16 16 15 14 13 13 13 13 12 10 10 10 9 8 9 8 8 8 8 9 9 11 13 15
3 3 3 5 9 15 5 7 4 2 4 3 4 5 9 27 26 27 26 23 22 21 20 18 17 17 16 16 15 14 13 13 12 10 8 7 6 5 5 4 4 6 5 6 7 8 9 10 13
4 2 3 7 8 11 4 8 8 5 2 4 4 9 25 28 27 22 20 22 23 23 22 19 18 18 18 18 17 16 15 13 10 9 7 6 4 2 2 2 3 4 5 7 7 7 7 8 12
3 5 5 6 6 6 7 4 4 9 2 6 11 12 16 19 18 19 23 28 31 26 23 20 19 19 18 18 17 16 14 12 10 8 6 5 3 2 1 1 2 4 5 6 6 7 9 12 14
1 7 4 2 6 8 9 8 5 3 5 9 16 20 16 12 16 20 22 27 27 27 23 21 20 18 18 18 17 15 14 12 9 7 4 3 3 2 3 2 2 4 5 7 9 10 12 13 15
3 3 3 5 8 8 8 4 7 2 3 12 15 17 17 16 18 22 30 29 26 26 25 23 20 18 16 14 14 15 14 12 8 7 5 3 2 1 3 3 4 6 8 9 11 12 14 15 17
5 4 2 4 4 5 7 4 4 1 7 12 16 15 13 13 20 18 15 27 29 27 25 20 18 14 12 10 10 14 12 10 9 8 6 3 1 1 3 4 6 8 11 12 13 15 15 16 16
3 4 5 5 2 4 4 3 2 4 8 13 13 13 9 4 9 10 18 23 27 24 21 19 14 8 5 4 4 2 5 6 6 6 3 2 4 6 7 8 10 12 12 14 15 16 17 19 20
5 5 4 3 1 1 5 6 0 7 14 10 7 6 6 4 2 3 9 20 21 21 20 16 13 8 8 5 4 6 3 5 7 7 8 10 11 9 10 10 11 11 13 16 18 20 21 21 21
7 3 1 1 2 3 3 0 8 2 6 7 6 7 6 4 5 3 7 13 19 20 21 21 15 8 6 4 7 10 11 14 16 15 13 11 11 10 10 10 12 15 18 21 20 19 19 18 18
5 4 1 3 2 2 4 5 7 2 6 6 6 6 6 6 6 7 3 8 15 22 26 25 17 13 8 15 17 20 19 16 14 12 10 8 8 9 10 13 16 20 22 21 21 20 19 17 20
4 3 3 2 2 7 6 5 8 4 7 6 6 7 7 7 6 11 14 19 23 22 25 20 16 16 20 22 20 18 17 14 11 8 6 5 5 8 12 16 18 17 18 19 20 20 19 18 22
6 5 2 2 6 6 6 8 8 8 3 4 7 7 7 7 6 14 22 24 26 25 24 21 21 21 19 17 14 10 12 9 6 5 3 4 8 12 16 18 16 15 18 20 18 16 15 11 16
4 4 1 2 3 7 4 4 5 5 6 8 7 5 5 8 8 6 16 23 23 25 27 27 25 22 16 10 9 9 9 8 6 4 2 6 11 13 15 16 13 14 16 14 11 13 16 13 15
3 0 2 4 3 3 3 3 2 3 4 4 5 5 6 6 4 5 8 14 20 18 17 16 14 12 11 9 7 7 5 7 4 3 2 6 10 13 16 16 12 12 13 11 10 9 11 9 10
1 5 4 3 5 4 4 4 3 6 3 5 5 5 5 7 6 7 5 12 13 12 10 11 8 8 6 5 3 2 2 3 5 1 4 7 9 13 13 13 11 10 8 6 4 6 8 9 10
4 5 8 5 3 2 1 4 3 5 6 6 4 5 7 5 2 7 10 10 9 11 11 10 9 7 5 4 2 2 2 3 1 4 7 10 11 14 15 15 13 12 10 8 7 7 9 11 11
6 5 3 3 3 4 3 3 6 5 5 9 9 8 7 6 7 7 13 17 15 9 11 12 10 6 4 3 3 3 1 2 6 9 13 14 15 18 19 18 17 15 12 10 9 10 9 11 13
3 5 5 5 3 3 3 3 4 4 7 9 9 8 6 6 4 5 9 10 14 13 10 8 6 5 5 3 3 1 5 8 10 14 14 16 19 21 21 22 18 15 12 12 13 15 14 14 14
2 3 3 6 2 3 2 3 4 5 4 7 9 7 7 6 6 6 10 12 14 12 8 7 4 6 5 3 3 6 9 13 15 16 18 20 22 25 24 21 17 13 13 14 16 20 18 16 16
2 5 3 3 2 3 4 4 5 5 7 8 8 8 7 5 6 6 12 12 10 9 5 2 5 6 4 4 7 9 11 14 15 16 18 20 24 25 24 20 16 17 18 15 13 16 18 15 14
2 2 6 4 3 4 1 5 5 12 12 12 8 7 8 8 7 6 9 8 7 6 3 5 6 3 3 7 9 10 12 11 14 15 15 16 17 19 21 22 19 19 16 15 16 18 16 15 12
2 3 5 4 3 1 3 5 2 6 9 7 7 7 5 6 6 6 7 7 5 3 5 7 1 3 5 6 6 6 9 10 10 12 13 16 20 22 23 20 17 13 17 14 14 15 18 12 11
Wind_Direction
299 293 265 310 70 87 251 269 252 155 71 58 66 88 124 86 351 200 128 163 159 155 155 151 147 142 135 131 131 130 125 120 115 112 109 105 99 96 88 82 77 75 69 64 57 55 53 50 46
288 311 53 45 87 108 263 235 332 72 134 121 116 107 46 48 336 140 132 154 155 152 152 149 146 140 138 136 135 131 126 122 119 117 110 105 102 93 88 81 77 75 70 65 58 50 45 41 38
272 47 75 103 122 190 220 93 108 151 173 133 105 75 105 147 111 141 143 154 152 152 152 151 146 144 142 139 135 134 129 126 123 115 111 106 99 95 87 83 80 72 66 58 50 44 41 39 38
25 30 26 93 224 263 184 112 176 94 8 6 120 52 80 23 149 162 149 153 153 152 154 153 151 147 144 140 138 135 131 128 121 118 112 105 96 88 83 79 73 66 61 58 51 43 42 45 47
77 72 60 40 308 286 286 128 86 38 36 41 84 142 120 57 152 144 146 156 156 158 155 155 152 150 146 144 141 136 132 130 125 120 111 102 98 87 85 80 74 69 70 56 56 54 52 54 48
37 102 72 140 302 316 15 95 106 32 40 180 91 100 99 139 136 143 151 154 162 158 157 157 155 154 150 148 142 142 139 136 128 119 112 110 102 97 92 80 77 75 66 63 54 50 47 45 38
132 82 154 178 22 354 39 107 85 228 155 234 112 88 85 141 149 154 156 162 164 161 159 159 160 158 153 150 147 145 141 136 130 124 120 109 105 93 88 74 73 67 63 57 50 41 35 29 24
110 95 124 200 152 358 300 63 134 206 209 110 139 156 167 183 155 162 163 161 163 162 163 163 162 159 155 152 146 145 142 139 139 130 123 116 114 106 98 84 70 67 56 47 28 17 19 18 16
152 73 142 195 166 168 168 129 152 295 131 28 29 129 145 155 158 156 159 163 167 168 168 169 164 161 154 150 149 151 148 149 152 144 135 145 124 107 90 78 55 45 23 20 5 356 358 5 6
89 93 207 191 193 182 183 144 137 134 123 41 61 70 127 149 156 155 162 169 173 178 178 175 168 163 160 158 157 161 157 161 159 163 163 166 161 118 53 30 7 14 13 15 20 19 23 359 358
130 204 191 236 216 128 126 103 116 133 260 202 151 136 134 150 160 164 178 175 180 182 182 179 172 172 166 169 169 169 168 173 172 172 182 185 193 202 191 323 21 25 16 16 17 11 4 360 0
248 241 190 234 171 137 137 122 113 156 237 142 155 146 147 169 177 182 184 185 187 189 185 187 185 184 181 179 183 181 184 182 187 181 197 213 187 161 121 104 44 25 16 12 7 5 6 4 1
195 314 37 97 100 99 104 138 169 215 104 106 134 151 166 179 187 197 186 188 192 195 194 195 194 195 195 198 204 204 206 203 200 217 230 237 180 150 104 81 43 31 25 19 18 9 1 356 351
186 61 74 52 101 107 122 153 128 318 124 126 153 170 174 182 195 203 191 195 201 202 199 200 202 207 217 224 246 235 231 223 223 231 224 235 251 132 96 78 53 33 24 18 9 360 352 352 346
87 65 42 32 53 81 118 35 128 145 139 149 175 176 177 198 205 210 210 206 207 208 204 203 198 211 213 200 198 242 258 243 214 199 188 135 111 113 101 74 51 34 16 3 355 348 344 340 339
65 46 78 291 98 16 92 253 260 158 147 169 141 134 123 66 79 240 218 223 217 211 205 188 174 157 147 94 82 143 181 167 146 131 110 106 102 88 69 46 29 13 358 351 347 346 341 341 342
16 155 198 9 39 107 96 342 358 185 132 124 135 129 122 98 51 9 241 221 215 202 183 161 146 111 101 139 133 128 116 105 107 105 100 90 73 55 36 23 13 4 358 353 354 353 358 358 354
192 151 247 203 188 74 74 19 346 3 132 129 118 97 93 74 21 25 76 178 178 165 162 147 143 172 156 116 127 116 108 104 100 94 86 71 50 28 15 10 358 351 348 352 352 353 350 359 355
134 139 171 261 262 78 86 54 355 348 92 105 96 98 87 66 54 78 94 117 119 133 145 151 155 132 144 132 124 117 109 107 105 102 91 51 25 13 7 2 356 357 359 359 352 349 355 358 351
78 95 88 352 17 92 77 43 17 16 44 116 121 106 104 97 74 88 106 111 110 113 125 141 149 154 154 133 119 117 126 125 131 124 101 47 19 10 1 357 356 356 353 351 352 356 1 358 0
43 111 36 143 51 52 101 39 29 9 51 78 73 104 104 123 123 115 112 117 116 124 127 137 141 141 137 126 129 137 144 151 161 151 78 24 6 353 352 352 350 352 354 358 2 355 357 357 347
116 131 97 72 87 156 25 241 49 74 56 83 119 124 134 136 94 83 107 120 119 116 121 127 133 137 143 150 166 181 214 203 189 152 44 0 349 345 345 341 339 341 345 348 345 346 349 338 334
133 65 66 81 81 85 5 85 274 128 159 185 179 173 174 179 150 128 112 124 124 129 137 139 150 159 163 179 213 228 197 164 152 142 335 320 331 329 324 318 309 313 321 328 325 331 331 329 323
127 57 36 42 63 48 312 132 247 195 187 181 187 193 191 176 170 119 131 137 131 156 172 173 183 188 185 210 222 180 161 154 176 276 289 302 309 309 304 300 296 307 311 309 303 308 311 312 311
70 65 6 1 3 219 310 124 247 216 183 176 178 187 194 156 159 162 153 154 148 171 157 167 182 159 170 176 154 160 180 285 307 314 315 307 311 313 316 297 288 290 294 287 286 290 296 303 307
79 141 154 214 195 245 341 247 250 276 215 160 173 187 158 168 170 137 141 162 157 171 167 176 166 170 194 181 154 299 295 293 295 300 288 296 312 310 306 292 277 281 284 289 302 292 294 294 296
180 54 158 106 0 55 259 292 322 40 107 150 175 173 184 182 166 152 161 171 158 152 150 165 181 205 187 177 272 284 272 269 283 299 301 299 313 309 298 284 282 287 304 298 305 286 284 287 286
116 145 66 9 129 264 295 274 231 194 197 180 185 186 168 166 155 151 166 160 146 137 116 136 164 159 169 241 268 291 314 317 318 323 322 319 313 309 302 287 271 260 270 263 278 281 284 280 287
37 57 52 104 114 157 275 261 223 195 196 192 191 185 175 166 155 150 138 126 110 88 92 103 116 118 300 296 303 319 336 355 348 338 345 341 331 323 310 287 261 265 258 291 281 269 273 279 275
175 144 136 113 206 85 147 275 322 245 203 171 185 172 134 136 141 128 110 105 109 130 91 116 134 264 296 320 351 18 357 351 343 340 340 335 328 319 310 284 257 272 296 297 290 303 292 274 287
Height
781 782 784 782 803 809 824 810 787 794 800 798 796 803 815 816 816 825 816 819 821 825 827 828 830 831 833 834 837 839 840 842 843 845 846 847 848 848 847 848 848 848 849 849 849 848 848 846 845
781 782 782 789 813 829 822 796 793 794 796 795 799 802 808 821 815 816 816 820 823 826 829 830 832 833 834 835 838 839 841 842 844 845 846 847 849 848 848 849 849 850 850 850 850 849 849 848 847
781 781 790 807 822 822 815 794 797 795 789 789 799 800 809 818 817 817 816 821 824 827 829 832 833 834 835 836 837 840 841 843 844 846 848 849 850 849 848 849 850 852 852 851 851 852 851 850 849
780 782 795 812 815 806 797 797 789 797 787 783 789 805 807 814 815 816 818 822 826 829 832 833 834 834 836 838 839 841 842 843 844 848 849 850 851 851 852 853 853 854 854 853 852 853 852 851 850
782 791 814 813 808 800 789 786 796 796 794 795 792 808 810 813 815 816 820 824 827 831 832 834 835 836 838 839 841 842 843 846 846 849 850 852 852 852 854 855 855 855 857 857 856 855 855 854 853
789 796 821 824 812 799 792 787 801 800 803 798 799 806 816 814 814 817 822 825 830 831 832 833 835 838 839 840 841 843 844 846 848 850 851 852 852 853 854 855 855 856 857 856 857 857 857 856 856
789 803 817 817 813 802 791 788 799 806 808 801 796 814 815 816 817 818 823 828 832 832 832 834 837 837 839 840 842 844 846 848 850 851 853 854 855 855 856 858 857 859 859 859 858 858 858 858 857
786 798 811 809 813 808 792 790 799 801 799 794 795 815 817 814 816 820 825 829 832 833 834 835 836 837 839 841 844 846 848 849 853 854 855 856 855 855 857 856 859 858 860 858 860 860 858 858 858
781 801 815 806 806 809 787 795 798 798 799 796 798 802 806 812 817 822 826 830 833 833 833 837 838 839 840 842 844 847 849 851 853 854 855 857 857 858 859 859 859 860 861 858 858 859 859 859 858
787 802 793 790 787 788 782 783 790 802 803 806 806 806 809 814 819 822 825 828 830 831 833 836 837 839 839 841 843 846 847 851 852 854 856 858 858 857 859 860 859 859 860 859 858 859 858 858 857
784 795 785 780 778 777 784 791 793 802 807 802 803 810 813 819 821 823 825 824 826 830 834 836 838 840 840 843 845 847 849 852 853 853 856 857 857 857 857 861 860 860 861 858 858 858 858 857 856
785 778 779 775 775 778 788 789 796 795 793 790 798 803 812 820 820 821 823 825 826 829 831 836 838 841 842 842 846 848 850 850 853 854 856 856 855 857 857 859 861 860 860 859 858 857 857 857 855
782 775 776 774 775 781 782 790 793 797 794 796 803 807 811 817 819 819 818 823 826 828 831 836 838 841 845 845 848 850 852 852 852 854 856 857 855 858 857 859 860 860 860 859 857 857 857 856 854
776 778 779 778 780 781 789 794 789 796 797 802 804 809 813 818 819 819 821 822 825 829 832 837 841 844 846 848 853 853 854 854 854 854 856 856 856 857 857 858 860 860 859 858 856 856 855 853 852
776 784 782 783 781 786 784 794 796 796 799 804 808 810 815 818 822 820 821 822 825 829 833 837 842 845 845 849 850 853 854 854 854 855 856 855 856 856 857 858 859 860 859 857 856 855 854 851 849
788 794 805 786 782 789 790 815 795 799 799 809 813 816 817 820 822 821 821 822 825 829 832 837 842 845 846 849 851 849 851 853 853 854 855 856 857 856 856 858 859 859 857 855 854 852 850 848 845
805 814 804 793 785 788 792 804 806 804 806 814 815 817 819 821 822 821 820 821 824 827 830 837 843 849 849 850 851 850 854 854 855 855 856 857 857 857 857 858 857 856 854 852 851 850 847 844 842
808 807 807 801 794 791 799 818 818 810 810 818 820 823 824 825 826 824 822 822 824 824 829 836 841 844 846 850 851 851 853 857 857 857 858 858 857 857 857 856 855 853 850 849 848 847 845 843 841
794 798 803 802 792 807 827 828 826 821 821 825 826 826 829 829 828 827 826 828 827 831 833 838 842 846 853 854 854 853 855 856 857 858 858 857 856 856 855 854 853 851 850 849 847 845 843 842 838
797 805 804 798 798 807 823 831 829 826 826 825 827 829 830 830 830 829 830 830 831 834 837 841 846 849 851 851 851 852 853 854 856 856 856 856 855 855 854 853 852 851 850 848 846 844 843 841 839
803 806 804 806 804 811 816 832 835 829 828 826 829 831 831 831 831 831 831 830 835 837 838 842 846 848 849 848 849 851 853 854 855 856 855 855 855 855 854 853 851 850 849 847 846 844 842 840 838
805 798 801 808 815 833 820 843 834 834 835 833 834 835 834 833 834 834 835 837 836 840 843 846 848 849 850 849 849 850 851 852 853 854 855 855 855 853 852 851 850 849 848 846 844 843 842 841 839
801 799 804 809 823 826 827 841 839 835 838 837 836 835 834 833 833 834 838 839 840 843 846 846 849 850 850 851 851 850 852 853 854 855 855 855 854 853 851 850 848 846 844 842 840 840 839 839 837
796 806 817 824 832 850 828 838 840 838 831 833 833 834 835 836 838 837 838 842 842 842 845 846 850 851 850 850 850 851 853 853 854 855 854 853 851 850 848 846 845 843 841 840 839 837 837 837 836
806 821 853 852 861 854 831 838 830 823 822 824 831 834 834 837 838 836 836 837 840 848 847 847 850 850 850 851 851 852 854 854 854 853 852 850 849 847 845 843 841 840 839 838 836 836 833 833 833
811 819 849 837 859 850 831 837 826 820 818 820 825 828 833 836 838 839 840 842 840 845 847 849 850 849 850 850 852 853 853 852 852 850 849 847 846 843 842 839 837 837 836 836 836 834 832 831 828
811 828 822 849 860 863 848 830 821 821 823 823 826 829 832 834 835 837 839 842 843 845 847 848 847 849 850 851 852 852 851 851 850 848 846 844 843 840 838 836 836 836 837 836 835 834 830 829 827
803 814 834 851 852 844 847 840 837 826 827 825 827 829 832 835 837 839 842 843 844 845 845 845 846 848 850 850 850 850 850 849 848 846 844 843 840 837 835 833 831 829 828 828 827 827 827 825 824
815 822 834 841 858 863 873 846 822 817 818 821 824 828 832 836 839 841 842 843 842 842 844 845 846 847 849 849 848 848 848 847 845 844 842 840 837 834 831 828 827 825 824 825 825 824 822 821 821
807 814 828 856 842 873 871 848 816 818 815 819 824 828 833 838 840 840 840 841 843 844 843 844 846 846 847 847 847 848 846 845 844 843 840 837 833 830 826 824 823 822 822 822 822 822 821 818 817